Location: Monrovia
(34.7865°N, 86.7139°W)
Time: 21:27:39
(UTC+00:00)

CZ-2D R/B - Pass Details

Date: 14 July 2020
Orbit: 792 x 844 km, 98.7° (Epoch: 08 August)

Event Time Altitude Azimuth Distance (km) Brightness Sun altitude
Rises 07:27:05 0° 11° (N) 3,352 6.4 -29.3°
Reaches altitude 10° 07:29:25 10° 10° (N) 2,424 5.5 -29.1°
Enters shadow 07:34:24 74° 333° (NNW) 863 2.2 -28.7°
